DW0529 Weather Reports


Display with metric or nautical units.
time (UTC)temp
F
wind
direction
speed
MPH
gust
MPH
rain 1hr
in
rain 24hr
in
rain mn
in
humidity
%
barometer
mb
20260507101458 57 98 0.0 0.0 0.00 0.00 0.00 79 971.4
20260507100452 57 98 0.0 0.0 0.00 0.00 0.00 79 971.3
20260507095504 57 98 0.0 0.0 0.00 0.00 0.00 79 971.4
20260507094457 57 98 0.0 0.0 0.00 0.00 0.00 78 971.4
20260507093508 57 98 0.0 0.0 0.00 0.00 0.00 77 971.6
20260507092526 57 98 0.0 0.0 0.00 0.00 0.00 77 971.6
20260507091511 57 98 0.0 0.0 0.00 0.00 0.00 76 971.6
20260507090451 57 98 0.0 0.0 0.00 0.00 0.00 75 971.8
20260507085450 57 98 0.0 0.0 0.00 0.00 0.00 74 971.8
20260507082225 57 98 0.0 0.0 0.00 0.00 0.00 73 972.1
20260507081248 57 98 0.0 0.0 0.00 0.00 0.00 72 972.2
20260507080218 57 98 0.0 0.0 0.00 0.00 0.00 73 972.1
20260507075202 56 98 0.0 0.0 0.00 0.00 0.00 76 972.2
20260507074147 55 98 0.0 0.0 0.00 0.00 0.00 80 972.2
20260507073204 55 98 0.0 0.0 0.00 0.00 0.00 82 972.4
20260507072227 55 98 0.0 0.0 0.00 0.00 0.00 84 972.5
20260507071233 55 98 0.0 0.0 0.00 0.00 0.00 85 972.4
20260507070208 55 98 0.0 0.0 0.00 0.00 0.00 85 972.4
20260507065200 55 98 0.0 0.0 0.00 0.00 0.00 85 972.4
20260507064139 55 98 0.0 0.0 0.00 0.00 0.00 85 972.4
20260507063123 56 98 0.0 0.0 0.00 0.00 0.00 84 972.4
20260507062140 56 98 0.0 0.0 0.00 0.00 0.00 83 972.3
20260507060050 57 98 0.0 0.0 0.00 0.00 0.00 80 972.3
20260507055034 58 98 0.0 0.0 0.00 0.00 0.00 77 972.3
20260507054056 59 98 0.0 0.0 0.00 0.00 0.00 74 972.2
20260507053110 58 99 0.0 0.0 0.00 0.00 0.00 76 972.2
20260507050944 56 98 0.0 0.0 0.00 0.00 0.00 83 972.2
20260507045952 56 99 0.0 0.0 0.00 0.00 0.00 84 972.2
20260507044954 56 99 0.0 0.0 0.00 0.00 0.00 83 972.2
20260507044010 56 98 0.0 0.0 0.00 0.00 0.00 83 972.2
20260507041915 57 99 0.0 0.0 0.00 0.00 0.00 82 972.1
20260507040935 57 91 0.0 0.0 0.00 0.00 0.00 82 972.0
20260507034803 58 104 0.0 1.0 0.00 0.00 0.00 78 971.8
20260507033759 58 104 0.0 0.0 0.00 0.00 0.00 79 971.7
20260507032803 58 104 0.0 0.0 0.00 0.00 0.00 78 971.6
20260507031803 58 105 0.0 3.0 0.00 0.00 0.00 77 971.5
20260507030756 58 221 0.0 0.0 0.00 0.00 0.00 76 971.5
20260507025731 58 221 0.0 0.0 0.00 0.00 0.00 75 971.3
20260507024709 59 221 0.0 0.0 0.00 0.00 0.00 74 971.3
20260507023703 60 221 0.0 0.0 0.00 0.00 0.00 73 971.1
20260507022644 60 221 0.0 0.0 0.00 0.00 0.00 72 971.1
20260507020456 62 221 0.0 1.0 0.00 0.00 0.00 70 971.0
20260507015443 62 221 1.0 4.0 0.00 0.00 0.00 70 970.9
20260507013320 64 171 1.0 5.0 0.00 0.00 0.00 66 970.8
20260507012315 64 191 2.0 6.0 0.00 0.00 0.00 64 970.9
20260507011336 65 191 1.0 6.0 0.00 0.00 0.00 62 970.8
20260507010326 65 230 2.0 6.0 0.00 0.00 0.00 60 970.8
20260507005318 65 204 2.0 6.0 0.00 0.00 0.00 59 970.7
20260507004320 65 184 2.0 10.0 0.00 0.00 0.00 58 970.8
20260507003255 64 220 2.0 10.0 0.00 0.00 0.00 60 970.8
20260507001146 64 236 3.0 9.0 0.00 0.00 0.00 61 970.8
20260507000117 65 241 2.0 9.0 0.00 0.00 0.00 61 970.7
20260506235044 66 165 2.0 8.0 0.00 0.00 0.00 61 970.7
20260506234045 66 188 3.0 8.0 0.00 0.00 0.00 58 970.8
20260506231929 66 188 2.0 7.0 0.00 0.00 0.00 54 970.9
20260506230920 67 213 2.0 8.0 0.00 0.00 0.00 55 970.9
20260506225902 67 234 3.0 8.0 0.00 0.00 0.00 57 970.9
20260506224922 67 239 2.0 8.0 0.00 0.00 0.00 56 971.0
20260506222712 67 163 2.0 8.0 0.00 0.00 0.00 57 971.3
20260506221642 68 261 2.0 6.0 0.00 0.00 0.00 54 971.4
20260506215604 68 153 2.0 8.0 0.00 0.00 0.00 54 971.6
20260506214543 68 173 2.0 7.0 0.00 0.00 0.00 52 971.6
20260506213529 69 227 1.0 7.0 0.00 0.00 0.00 52 971.8
20260506212547 68 182 1.0 5.0 0.00 0.00 0.00 53 971.8
20260506211522 69 241 1.0 6.0 0.00 0.00 0.00 53 971.9
20260506210456 68 238 2.0 7.0 0.00 0.00 0.00 54 972.1
20260506204330 68 228 1.0 7.0 0.00 0.00 0.00 56 972.3
20260506203325 68 180 1.0 7.0 0.00 0.00 0.00 53 972.3
20260506202347 68 236 2.0 9.0 0.00 0.00 0.00 54 972.4
20260506200211 67 200 1.0 7.0 0.00 0.00 0.00 56 972.6
20260506195234 66 146 1.0 7.0 0.00 0.00 0.00 58 972.6
20260506194256 66 240 1.0 6.0 0.00 0.00 0.00 59 972.6
20260506192158 66 217 1.0 6.0 0.00 0.00 0.00 62 972.8
20260506190040 65 223 2.0 7.0 0.00 0.00 0.00 64 973.0
20260506183945 64 172 2.0 6.0 0.00 0.00 0.00 65 973.1
20260506183004 65 221 1.0 6.0 0.00 0.00 0.00 63 973.1
20260506174614 65 159 1.0 6.0 0.00 0.00 0.00 61 973.4
20260506173609 65 173 1.0 6.0 0.00 0.00 0.00 61 973.4
20260506172614 63 147 0.0 2.0 0.00 0.00 0.00 65 973.3
20260506171630 62 210 1.0 4.0 0.00 0.00 0.00 65 973.2
20260506165524 62 213 1.0 5.0 0.00 0.00 0.00 68 973.3
20260506163322 60 202 0.0 5.0 0.00 0.00 0.00 72 973.2
20260506162249 60 211 1.0 4.0 0.00 0.00 0.00 74 973.3
20260506161215 59 216 0.0 4.0 0.00 0.00 0.00 73 973.2
20260506160200 59 205 0.0 1.0 0.00 0.00 0.00 74 973.3
20260506155144 58 200 0.0 1.0 0.00 0.00 0.00 77 973.3
20260506154149 58 200 0.0 2.0 0.00 0.00 0.00 79 973.2
20260506153153 57 196 0.0 2.0 0.00 0.00 0.00 81 973.3
20260506152127 55 194 0.0 0.0 0.00 0.00 0.00 85 973.3
20260506151105 54 194 0.0 2.0 0.00 0.00 0.00 85 973.2
20260506150123 54 194 0.0 1.0 0.00 0.00 0.00 86 973.1
20260506145147 54 194 0.0 0.0 0.00 0.00 0.00 87 973.3
20260506143040 52 194 0.0 0.0 0.00 0.00 0.00 89 973.3
20260506142034 52 194 0.0 0.0 0.00 0.00 0.00 90 973.2
20260506135906 51 194 0.0 0.0 0.00 0.00 0.00 89 973.0
20260506134917 51 194 0.0 0.0 0.00 0.00 0.00 88 972.9
20260506133938 51 194 0.0 0.0 0.00 0.00 0.00 88 972.7
20260506132932 51 194 0.0 0.0 0.00 0.00 0.00 88 972.7
20260506131917 51 194 0.0 0.0 0.00 0.00 0.00 89 972.6
20260506130917 51 194 0.0 0.0 0.00 0.00 0.00 89 972.4
20260506125935 50 194 0.0 0.0 0.00 0.00 0.00 88 972.2
20260506124927 50 194 0.0 0.0 0.00 0.00 0.00 88 972.3
20260506122750 50 194 0.0 0.0 0.00 0.00 0.00 89 972.1
20260506121743 50 194 0.0 0.0 0.00 0.00 0.00 90 972.0
20260506120752 50 194 0.0 0.0 0.00 0.00 0.00 90 972.1
20260506114608 51 194 0.0 0.0 0.00 0.00 0.00 90 972.0
20260506113617 51 194 0.0 0.0 0.00 0.00 0.00 90 972.0
20260506111403 51 194 0.0 0.0 0.00 0.00 0.00 91 972.0
20260506110421 51 194 0.0 0.0 0.00 0.00 0.00 90 972.0
20260506105417 51 194 0.0 0.0 0.00 0.00 0.00 90 972.0
20260506104349 51 194 0.0 0.0 0.00 0.00 0.00 90 972.0
20260506103341 51 194 0.0 0.0 0.00 0.00 0.00 90 972.1
20260506102403 51 194 0.0 0.0 0.00 0.00 0.00 90 972.0